• Join FlightAware (Why Join?)
  • Login
  • US Flag 
12:56AM EDT


 

Airport Tracker/Info


-or-


 

Live Flight TrackerFlight Track Log ✈ EJA396 ✈ 31-Jul-2013 ✈ KMMU - KBVY

Flight Track Log - Related Links

Times and Time Zones

All times are in EDT time to prevent confusion due to time zone crossing. See the EJA396 flight status page for this flight to view local times or setup timezone preferences in your user account.

Time Position Orientation Groundspeed Altitude Reporting Facility
EDT Latitude Longitude Course Direction KTS MPH feet Rate Location/Type
09:04PM 40.7500 -74.4000 37° Northeast 201 231 2,900  Level New York TRACON
09:05PM 40.7833 -74.3500 49° Northeast 265 305 4,400 1,500 Climbing New York TRACON
09:06PM 40.8500 -74.3000 30° Northeast 271 312 6,000 780 Climbing New York TRACON
09:07PM 40.9167 -74.2667 21° North 280 322 6,000  Level New York TRACON
09:08PM 41.0000 -74.2167 24° Northeast 275 316 6,000 180 Level New York TRACON
09:09PM 40.9514 -74.1320 37° Northeast  Level FlightAware Approximate
09:09PM 41.0667 -74.1833 21° North 269 310 6,400  Level New York TRACON
09:10PM 41.1333 -74.1500 21° North 279 321 9,000 1,560 Climbing New York TRACON
09:12PM 41.1981 -73.9656 65° Northeast 327 376 11,000 1,200 Climbing Boston Center
09:12PM 41.2225 -73.8475 75° East 346 398 12,400 1,800 Climbing Boston Center
09:13PM 41.2533 -73.7047 74° East 358 412 14,600 1,260 Climbing Boston Center
09:15PM 41.2817 -73.5836 73° East 371 427 15,000 180 Climbing Boston Center
09:16PM 41.3311 -73.4408 65° Northeast 379 436 15,000  Level Boston Center
09:16PM 41.3758 -73.3169 64° Northeast 379 436 15,000  Level Boston Center
09:17PM 41.4225 -73.1875 64° Northeast 374 430 15,000  Level Boston Center
09:18PM 41.4672 -73.0606 65° Northeast 380 437 15,000  Level Boston Center
09:19PM 41.5094 -72.9308 66° East 380 437 15,000  Level Boston Center
09:20PM 41.5536 -72.8064 65° Northeast 375 432 15,000  Level Boston Center
09:22PM 41.6000 -72.6761 65° Northeast 380 437 15,000 -120 Level Boston Center
09:22PM 41.6458 -72.5483 64° Northeast 380 437 14,800 -540 Descending Boston Center
09:23PM 41.6981 -72.4872 41° Northeast 376 433 14,100 -1,020 Descending Boston Center
09:24PM 41.7647 -72.4150 39° Northeast 371 427 13,300 -1,020 Descending Boston Center
09:24PM 41.8044 -72.3706 40° Northeast 369 425 12,800 -1,020 Descending Boston Center
09:25PM 41.8439 -72.3286 38° Northeast 369 425 12,300 -1,020 Descending Boston Center
09:26PM 41.8833 -72.2811 42° Northeast 369 425 11,800 -1,200 Descending Boston Center
09:26PM 41.9208 -72.2419 38° Northeast 341 392 11,100 -1,440 Descending Boston Center
09:27PM 41.9458 -72.2083 45° Northeast 347 399 10,400 -1,620 Descending Boston Center
09:28PM 42.0144 -72.1328 39° Northeast 303 349 8,700 -1,680 Descending Boston Center
09:28PM 42.0706 -72.0681 41° Northeast 292 336 7,200 -1,620 Descending Boston Center
09:29PM 42.1347 -71.9950 40° Northeast 276 318 5,600 -1,140 Descending Boston Center
09:30PM 42.1867 -71.9358 40° Northeast 276 318 5,000 -300 Descending Boston Center
09:31PM 42.2469 -71.8708 39° Northeast 281 323 5,000  Level Boston Center
09:33PM 42.3089 -71.8000 40° Northeast 275 316 5,000  Level Boston Center
09:33PM 42.3689 -71.7347 39° Northeast 275 316 5,000 -360 Level Boston Center
09:34PM 42.4144 -71.6667 48° Northeast 275 316 4,400 -960 Descending Boston Center
09:36PM 42.4639 -71.5958 47° Northeast 239 275 3,100 -780 Descending Boston Center
09:36PM 42.5000 -71.5333 52° Northeast 221 254 3,000 -60 Descending KA90
09:37PM 42.5167 -71.4667 71° East 218 251 3,000  Level KA90
09:38PM 42.5500 -71.3833 61° Northeast 219 252 3,000  Level KA90
09:39PM 42.5833 -71.3167 56° Northeast 218 251 3,000  Level KA90
09:40PM 42.6000 -71.2333 75° East 218 251 3,000  Level KA90
09:41PM 42.6167 -71.1667 71° East 208 239 3,000 -540 Level KA90
09:42PM 42.6167 -71.0833 90° East 191 220 2,000 -1,020 Descending KA90